AUA5001 LGMK-LGSA

Flight info

Callsign AUA5001
Flight time 0h 29m
Altitude 24000
Route DIDIS R32 MIL/N0407F230 J56 RUSOS
Aircraft A320/M-SDE3FGHIRWY/LB1

Departure

Time 2026-04-24 13:03
Airport Mykonos Island National Airport (LGMK)

Arrival

Time 2026-04-24 13:33
Airport Chania International Airport (LGSA)
Time Latitude Longitude Altitude Speed Heading
2026-04-24 12:54 37.43463 25.34651 404 ft 0 kts 253°
2026-04-24 12:57 37.43463 25.34650 404 ft 2 kts 253°
2026-04-24 12:59 37.43462 25.34647 404 ft 4 kts 251°
2026-04-24 12:59 37.43438 25.34637 405 ft 0 kts 187°
2026-04-24 13:00 37.43444 25.34638 405 ft 2 kts 190°
2026-04-24 13:00 37.43460 25.34645 404 ft 3 kts 190°
2026-04-24 13:00 37.43463 25.34648 404 ft 2 kts 164°
2026-04-24 13:00 37.43445 25.34708 402 ft 11 kts 109°
2026-04-24 13:01 37.43413 25.34813 399 ft 14 kts 112°
2026-04-24 13:01 37.43317 25.34913 399 ft 25 kts 158°
2026-04-24 13:01 37.43161 25.34981 396 ft 24 kts 160°
2026-04-24 13:01 37.43012 25.35047 402 ft 22 kts 160°
2026-04-24 13:02 37.42864 25.35110 402 ft 22 kts 162°
2026-04-24 13:02 37.42749 25.35134 405 ft 10 kts 180°
2026-04-24 13:02 37.42736 25.35161 405 ft 4 kts 49°
2026-04-24 13:02 37.42764 25.35155 402 ft 0 kts 339°
2026-04-24 13:03 37.43048 25.35030 401 ft 89 kts 341°
2026-04-24 13:03 37.43863 25.34665 487 ft 148 kts 341°
2026-04-24 13:03 37.44789 25.34236 1466 ft 140 kts 343°
2026-04-24 13:04 37.45778 25.33773 2125 ft 163 kts 343°
2026-04-24 13:04 37.46915 25.33232 2727 ft 186 kts 343°
2026-04-24 13:04 37.48178 25.32629 3361 ft 208 kts 341°
2026-04-24 13:04 37.49438 25.31500 4180 ft 244 kts 313°
2026-04-24 13:05 37.50193 25.29467 5026 ft 271 kts 283°
2026-04-24 13:05 37.50005 25.27068 6092 ft 285 kts 249°
2026-04-24 13:05 37.48786 25.25100 7213 ft 291 kts 217°
2026-04-24 13:05 37.47079 25.23735 8418 ft 290 kts 210°
2026-04-24 13:06 37.45314 25.22484 9618 ft 292 kts 208°
2026-04-24 13:06 37.43505 25.21251 10491 ft 305 kts 208°
2026-04-24 13:06 37.41564 25.19928 10924 ft 329 kts 209°
2026-04-24 13:06 37.39480 25.18491 11280 ft 354 kts 209°
2026-04-24 13:07 37.37255 25.16938 11565 ft 376 kts 210°
2026-04-24 13:07 37.34935 25.15299 12200 ft 386 kts 210°
2026-04-24 13:07 37.32584 25.13629 12969 ft 389 kts 210°
2026-04-24 13:07 37.30217 25.11944 13770 ft 392 kts 210°
2026-04-24 13:08 37.27870 25.10275 14443 ft 393 kts 211°
2026-04-24 13:08 37.25449 25.08552 14957 ft 400 kts 211°
2026-04-24 13:08 37.23013 25.06805 15440 ft 405 kts 211°
2026-04-24 13:09 37.18109 25.03280 16713 ft 410 kts 211°
2026-04-24 13:09 37.15636 25.01502 17434 ft 411 kts 211°
2026-04-24 13:09 37.13151 24.99718 18170 ft 412 kts 212°
2026-04-24 13:09 37.10658 24.97934 18778 ft 413 kts 211°
2026-04-24 13:10 37.08149 24.96140 19348 ft 415 kts 211°
2026-04-24 13:10 37.05633 24.94342 19903 ft 418 kts 211°
2026-04-24 13:10 37.03101 24.92530 20454 ft 420 kts 211°
2026-04-24 13:10 37.00556 24.90712 20999 ft 423 kts 211°
2026-04-24 13:11 36.97986 24.88880 21545 ft 426 kts 211°
2026-04-24 13:11 36.95401 24.87036 22083 ft 428 kts 211°
2026-04-24 13:11 36.92805 24.85183 22597 ft 431 kts 211°
2026-04-24 13:11 36.90224 24.83347 22908 ft 432 kts 211°
2026-04-24 13:12 36.87608 24.81491 23156 ft 433 kts 211°
2026-04-24 13:12 36.84984 24.79628 23410 ft 434 kts 211°
2026-04-24 13:12 36.82359 24.77765 23630 ft 435 kts 211°
2026-04-24 13:12 36.79721 24.75890 23853 ft 436 kts 211°
2026-04-24 13:13 36.77089 24.74024 23966 ft 436 kts 211°
2026-04-24 13:13 36.74452 24.72159 23996 ft 436 kts 211°
2026-04-24 13:13 36.71817 24.70294 23996 ft 435 kts 211°
2026-04-24 13:13 36.69182 24.68428 23883 ft 437 kts 211°
2026-04-24 13:14 36.66530 24.66553 23412 ft 435 kts 211°
2026-04-24 13:14 36.63949 24.64736 22846 ft 417 kts 211°
2026-04-24 13:14 36.61447 24.62980 22310 ft 409 kts 211°
2026-04-24 13:14 36.58981 24.61248 21783 ft 406 kts 211°
2026-04-24 13:15 36.56532 24.59525 21264 ft 404 kts 210°
2026-04-24 13:15 36.54091 24.57807 20754 ft 402 kts 210°
2026-04-24 13:15 36.51668 24.56099 20244 ft 396 kts 210°
2026-04-24 13:15 36.49322 24.54446 19766 ft 380 kts 210°
2026-04-24 13:16 36.47068 24.52859 19277 ft 365 kts 210°
2026-04-24 13:16 36.44913 24.51344 18807 ft 354 kts 210°
2026-04-24 13:16 36.42790 24.49853 18333 ft 345 kts 209°
2026-04-24 13:16 36.40724 24.48403 17803 ft 337 kts 210°
2026-04-24 13:17 36.38697 24.46984 17274 ft 331 kts 210°
2026-04-24 13:17 36.36706 24.45592 16753 ft 326 kts 210°
2026-04-24 13:17 36.34741 24.44219 16236 ft 321 kts 210°
2026-04-24 13:17 36.32808 24.42865 15719 ft 317 kts 210°
2026-04-24 13:18 36.30897 24.41527 15228 ft 313 kts 211°
2026-04-24 13:18 36.29010 24.40208 14738 ft 310 kts 211°
2026-04-24 13:18 36.27137 24.38902 14260 ft 307 kts 211°
2026-04-24 13:18 36.25280 24.37610 13807 ft 304 kts 211°
2026-04-24 13:19 36.23456 24.36340 13413 ft 298 kts 211°
2026-04-24 13:19 36.21680 24.35103 13022 ft 295 kts 211°
2026-04-24 13:19 36.19895 24.33860 12629 ft 293 kts 211°
2026-04-24 13:19 36.18114 24.32621 12239 ft 293 kts 210°
2026-04-24 13:20 36.16343 24.31389 11856 ft 292 kts 210°
2026-04-24 13:20 36.14575 24.30160 11478 ft 291 kts 210°
2026-04-24 13:20 36.12808 24.28930 11098 ft 291 kts 210°
2026-04-24 13:20 36.11043 24.27704 10729 ft 290 kts 210°
2026-04-24 13:21 36.09281 24.26483 10361 ft 290 kts 210°
2026-04-24 13:21 36.07517 24.25261 9999 ft 290 kts 210°
2026-04-24 13:21 36.05757 24.24042 9612 ft 290 kts 210°
2026-04-24 13:21 36.04005 24.22828 9217 ft 286 kts 210°
2026-04-24 13:22 36.02289 24.21639 8823 ft 280 kts 210°
2026-04-24 13:22 36.00599 24.20467 8428 ft 277 kts 210°
2026-04-24 13:22 35.98926 24.19307 8099 ft 275 kts 209°
2026-04-24 13:22 35.97257 24.18152 7833 ft 275 kts 209°
2026-04-24 13:23 35.95589 24.16994 7576 ft 275 kts 209°
2026-04-24 13:23 35.93927 24.15841 7329 ft 274 kts 209°
2026-04-24 13:23 35.92267 24.14692 7084 ft 273 kts 208°
2026-04-24 13:23 35.90611 24.13550 6834 ft 272 kts 208°
2026-04-24 13:24 35.88958 24.12411 6577 ft 272 kts 208°
2026-04-24 13:24 35.87330 24.11288 6342 ft 271 kts 208°
2026-04-24 13:24 35.85692 24.10159 6082 ft 269 kts 207°
2026-04-24 13:24 35.84060 24.09035 5820 ft 268 kts 208°
2026-04-24 13:25 35.82425 24.07909 5562 ft 268 kts 208°
2026-04-24 13:25 35.80801 24.06793 5310 ft 267 kts 207°
2026-04-24 13:25 35.79179 24.05679 5049 ft 266 kts 207°
2026-04-24 13:25 35.77567 24.04568 4795 ft 265 kts 208°
2026-04-24 13:26 35.75963 24.03461 4537 ft 264 kts 207°
2026-04-24 13:26 35.74363 24.02360 4280 ft 263 kts 207°
2026-04-24 13:26 35.72766 24.01263 4023 ft 262 kts 207°
2026-04-24 13:26 35.71192 24.00183 3768 ft 255 kts 207°
2026-04-24 13:27 35.69658 23.99133 3520 ft 249 kts 207°
2026-04-24 13:27 35.68179 23.98121 3424 ft 238 kts 207°
2026-04-24 13:27 35.66766 23.97154 3415 ft 225 kts 207°
2026-04-24 13:27 35.65410 23.96222 3414 ft 223 kts 206°
2026-04-24 13:28 35.64067 23.95302 3412 ft 219 kts 207°
2026-04-24 13:28 35.62724 23.94413 3411 ft 219 kts 201°
2026-04-24 13:28 35.61254 23.94194 3418 ft 212 kts 166°
2026-04-24 13:28 35.59982 23.94968 3257 ft 204 kts 134°
2026-04-24 13:29 35.59265 23.96377 3074 ft 188 kts 109°
2026-04-24 13:29 35.58788 23.97837 2871 ft 181 kts 109°
2026-04-24 13:29 35.58322 23.99263 2697 ft 175 kts 108°
2026-04-24 13:29 35.57882 24.00600 2531 ft 164 kts 109°
2026-04-24 13:30 35.57461 24.01880 2392 ft 160 kts 108°
2026-04-24 13:30 35.57046 24.03146 2245 ft 161 kts 108°
2026-04-24 13:30 35.56628 24.04416 2054 ft 158 kts 109°
2026-04-24 13:30 35.56221 24.05645 1838 ft 151 kts 108°
2026-04-24 13:31 35.55963 24.06425 1702 ft 146 kts 109°
2026-04-24 13:31 35.55592 24.07545 1472 ft 138 kts 109°
2026-04-24 13:31 35.55238 24.08609 1286 ft 130 kts 110°
2026-04-24 13:31 35.54910 24.09591 1079 ft 119 kts 112°
2026-04-24 13:32 35.54617 24.10558 945 ft 123 kts 112°
2026-04-24 13:32 35.54294 24.11524 822 ft 121 kts 112°
2026-04-24 13:32 35.53993 24.12466 662 ft 115 kts 113°
2026-04-24 13:32 35.53692 24.13386 505 ft 116 kts 112°
2026-04-24 13:33 35.53409 24.14249 455 ft 90 kts 111°
2026-04-24 13:33 35.53266 24.14683 463 ft 30 kts 111°
2026-04-24 13:33 35.53189 24.14920 465 ft 28 kts 111°
2026-04-24 13:33 35.53143 24.15071 467 ft 8 kts 94°
2026-04-24 13:34 35.53195 24.15130 469 ft 16 kts 26°
2026-04-24 13:34 35.53281 24.15169 469 ft 10 kts 354°
2026-04-24 13:34 35.53316 24.15095 468 ft 17 kts 291°
2026-04-24 13:34 35.53375 24.14914 465 ft 22 kts 292°
2026-04-24 13:35 35.53432 24.14738 462 ft 22 kts 291°
2026-04-24 13:35 35.53488 24.14567 460 ft 22 kts 292°
2026-04-24 13:35 35.53543 24.14397 458 ft 21 kts 291°
2026-04-24 13:35 35.53577 24.14338 457 ft 6 kts 346°
2026-04-24 13:36 35.53648 24.14356 458 ft 13 kts 355°
2026-04-24 13:36 35.53708 24.14280 457 ft 16 kts 295°
2026-04-24 13:36 35.53756 24.14132 454 ft 14 kts 292°
2026-04-24 13:36 35.53794 24.14085 455 ft 6 kts 352°
2026-04-24 13:37 35.53818 24.14087 455 ft 3 kts 13°
2026-04-24 13:37 35.53845 24.14097 455 ft 5 kts 19°
2026-04-24 13:37 35.53855 24.14101 455 ft 0 kts 19°